RH
10 10 10 9 8 8 9 9 9 8 7 5 3 3 3 4 5 9 13 17 27 26 26 33 33 41 43 42 45 51 53 55 48 39 36 36 47 55 53 48 44 44 43 43 47
10 10 10 10 8 8 8 9 9 7 7 5 4 3 2 3 4 6 12 15 25 27 26 31 36 39 40 42 45 50 47 42 42 39 34 44 46 46 50 47 46 45 45 49 52
11 10 10 10 8 8 8 8 8 7 7 6 4 3 3 3 3 3 9 14 25 27 33 37 38 36 37 41 42 42 43 40 40 37 34 36 47 48 50 49 47 44 44 47 55
11 11 10 10 9 7 8 8 8 7 7 6 4 4 4 6 11 6 6 13 24 30 35 38 37 37 39 42 45 42 41 38 38 34 32 34 45 51 47 49 50 48 47 49 50
11 11 10 10 9 7 8 8 8 7 7 6 5 5 8 10 11 10 7 11 23 31 38 40 38 40 39 40 44 41 42 39 43 38 43 43 42 43 48 46 51 55 54 58 61
11 11 11 10 9 8 7 8 8 7 7 6 6 6 9 13 11 9 6 12 25 32 37 37 38 38 39 39 42 40 41 44 41 45 50 49 42 41 42 46 50 57 61 65 73
12 12 11 10 9 8 8 8 7 7 7 7 6 6 8 11 11 8 6 17 29 37 37 41 40 38 40 42 43 39 37 45 45 46 48 46 46 52 47 44 53 58 61 67 80
13 12 11 10 9 8 8 7 7 7 7 7 6 6 6 10 9 9 13 21 30 36 32 35 36 35 41 45 49 43 41 44 44 42 39 42 54 57 49 43 46 54 59 69 70
13 12 11 9 8 8 7 7 6 6 6 7 7 9 6 9 9 9 14 23 33 30 30 35 35 36 41 41 48 46 41 46 44 45 39 46 45 51 49 46 44 54 68 69 65
14 12 11 9 8 7 7 6 6 7 6 7 7 9 6 11 9 10 15 26 31 29 29 34 36 39 42 44 45 44 40 42 42 45 45 47 45 47 46 42 50 58 69 72 74
17 14 11 9 8 7 7 11 12 13 12 8 6 7 11 11 9 9 17 25 28 28 30 38 39 42 42 37 40 38 40 40 38 38 38 43 45 44 44 46 45 56 62 70 75
18 16 13 9 8 8 8 12 13 13 11 9 8 9 10 10 10 10 17 23 26 24 31 35 39 38 39 41 40 41 42 42 40 40 38 44 40 45 45 43 42 51 63 62 67
20 18 15 10 9 9 10 13 12 12 10 8 7 8 9 9 10 11 14 20 26 24 28 30 37 37 38 42 41 40 38 40 40 43 42 45 39 43 44 46 48 49 48 57 59
21 19 16 11 10 12 14 14 13 13 15 11 8 7 9 10 10 11 12 17 23 26 24 30 37 37 42 43 38 43 35 37 38 43 45 39 33 46 46 45 48 49 51 51 54
22 20 17 13 11 14 15 15 13 13 21 14 10 9 9 9 9 11 11 14 17 22 24 26 38 39 42 42 43 38 40 39 34 35 35 31 38 39 44 43 50 51 55 50 52
22 21 18 14 11 13 15 16 14 19 20 14 13 14 12 9 8 9 11 11 16 19 24 29 36 38 41 42 41 41 42 41 37 35 31 35 38 36 41 37 38 44 50 57 49
21 20 17 13 11 13 12 14 18 23 18 17 17 17 16 14 10 10 11 13 17 22 26 29 31 33 39 37 38 38 40 42 38 35 37 40 42 44 34 33 37 41 50 54 48
21 18 16 12 11 13 12 15 20 18 23 21 18 18 17 14 11 11 12 13 14 18 20 27 33 32 34 33 37 38 38 41 38 33 35 39 47 40 38 40 41 45 47 46 48
20 17 14 13 11 14 14 20 17 24 24 23 21 21 18 15 12 12 11 12 14 16 16 21 24 27 28 31 37 38 36 34 33 32 39 48 46 46 41 47 46 48 52 52 48
19 19 15 16 10 12 15 18 14 28 26 25 25 24 22 18 15 13 12 12 13 15 15 12 16 20 21 24 22 25 26 29 34 34 52 57 54 55 42 47 49 51 47 49 39
18 27 23 24 12 12 17 16 11 23 25 25 25 24 25 19 17 17 15 13 15 16 17 12 13 17 19 19 18 20 23 20 29 33 51 62 54 50 48 51 52 53 50 49 46
25 34 30 26 23 16 14 11 10 22 25 23 22 21 24 23 23 21 18 16 16 18 19 14 14 16 16 15 16 17 21 19 26 28 36 43 45 47 51 49 47 56 58 53 42
28 37 37 31 28 21 16 18 16 23 26 23 21 21 22 22 25 23 23 18 17 18 19 18 17 17 17 16 16 17 18 19 19 30 33 36 42 46 47 47 52 48 44 46 45
30 51 44 36 29 22 22 21 19 26 25 22 18 18 22 22 25 25 30 27 18 17 17 18 19 17 17 18 19 22 20 22 25 29 29 34 44 40 37 40 44 43 42 41 46
46 52 45 42 34 31 33 30 28 27 29 27 19 16 17 25 27 28 31 30 22 22 18 18 18 19 15 17 20 21 26 24 23 26 30 32 34 32 33 34 36 37 38 42 44
50 55 47 45 42 37 41 41 37 37 32 33 27 20 18 24 28 32 33 35 31 25 24 19 18 20 18 17 19 22 26 28 27 28 29 33 34 33 36 38 39 39 35 35 38
52 50 52 52 48 42 42 41 38 35 31 36 34 32 27 32 37 40 38 38 39 35 28 24 21 23 20 15 19 23 30 33 35 35 34 32 32 37 41 39 40 39 40 38 36